Location: Cazavet
(43.0017°N, 1.0431°E)
Time: 21:10:56
(UTC+00:00)

Meteor 2-13 Rocket - Pass Details

Date: 18 January 2026
Orbit: 935 x 958 km, 82.5° (Epoch: 10 February)

Event Time Altitude Azimuth Distance (km) Brightness Sun altitude
Rises 04:48:34 0° 352° (N) 3,632 7.4 -27.8°
Reaches altitude 10° 04:51:05 10° 354° (N) 2,679 6.7 -27.4°
Maximum altitude 04:57:13 80° 81° (E) 963 4.4 -26.2°
Drops below altitude 10° 05:03:16 10° 169° (S) 2,646 6.9 -25.1°
Sets 05:05:44 0° 170° (S) 3,583 7.7 -24.7°
